This is the latest recevied weather packets stored in our database for station/object SQ5DN-4. If no packets are shown the sender has not sent any weather packets the latest 10 day(s).
| Time | Temp. | Humidity | Pressure | Rain* | Wind** | Luminosity | Snow |
|---|---|---|---|---|---|---|---|
| 1777556627 | 11.67° C | 30% | 1025 hPa | - | - | - | - |
| 1777556056 | 11.67° C | 30% | 1025 hPa | - | - | - | - |
| 1777555546 | 12.22° C | 31% | 1025 hPa | - | - | - | - |
| 1777555052 | 12.22° C | 31% | 1025 hPa | - | - | - | - |
| 1777554540 | 12.78° C | 29% | 1025 hPa | - | - | - | - |
| 1777553982 | 11.67° C | 29% | 1025 hPa | - | - | - | - |
| 1777553496 | 13.33° C | 29% | 1025 hPa | - | - | - | - |
| 1777552992 | 14.44° C | 28% | 1025 hPa | - | - | - | - |
| 1777552452 | 13.33° C | 29% | 1025 hPa | - | - | - | - |
| 1777551902 | 13.33° C | 26% | 1025 hPa | - | - | - | - |
| 1777551362 | 13.33° C | 24% | 1025 hPa | - | - | - | - |
| 1777550876 | 13.33° C | 24% | 1025 hPa | - | - | - | - |
| 1777550281 | 13.33° C | 25% | 1025 hPa | - | - | - | - |
| 1777549737 | 13.33° C | 25% | 1025 hPa | - | - | - | - |
| 1777549252 | 12.78° C | 25% | 1025 hPa | - | - | - | - |
| 1777548732 | 12.78° C | 29% | 1025 hPa | - | - | - | - |
| 1777548139 | 12.78° C | 29% | 1025 hPa | - | - | - | - |
| 1777547596 | 12.22° C | 27% | 1025 hPa | - | - | - | - |
| 1777547076 | 12.22° C | 31% | 1025 hPa | - | - | - | - |
| 1777546557 | 11.11° C | 29% | 1026 hPa | - | - | - | - |
| 1777545976 | 11.11° C | 29% | 1026 hPa | - | - | - | - |
| 1777545466 | 11.67° C | 32% | 1026 hPa | - | - | - | - |
| 1777544867 | 11.11° C | 33% | 1026 hPa | - | - | - | - |
| 1777544272 | 10° C | 33% | 1026 hPa | - | - | - | - |
| 1777543727 | 9.44° C | 35% | 1026 hPa | - | - | - | - |
* Rain since midnight (hover to see other rain measurements)
** Current wind speed in m/s (hover to see current wind gust speed)